Stündliche Wetter Jujuy

Heute, 4 März, Donnerstag

Zeit Temperatur Niederschläge Wind Luftdruck Luftfeuchtigkeit
00:00 +20°C° 1 mm 1 m/S 650 mmHg 97%
01:00 +20°C° 1 mm 1 m/S 650 mmHg 97%
02:00 +20°C° 1 mm 1 m/S 650 mmHg 97%
03:00 +20°C° 1.4 mm 1 m/S 650 mmHg 98%
04:00 +20°C° 1.4 mm 1 m/S 650 mmHg 98%
05:00 +20°C° 1.4 mm 1 m/S 649 mmHg 98%
06:00 +20°C° 0.9 mm 1 m/S 650 mmHg 98%
07:00 +20°C° 0.9 mm 1 m/S 650 mmHg 97%
08:00 +18°C° 0.9 mm 0 m/S 650 mmHg 97%
09:00 +21°C° 0.3 mm 1 m/S 651 mmHg 93%
10:00 +22°C° 0.3 mm 1 m/S 651 mmHg 89%
11:00 +23°C° 0.3 mm 1 m/S 651 mmHg 85%
12:00 +24°C° 1.2 mm 1 m/S 651 mmHg 85%
13:00 +24°C° 1.2 mm 1 m/S 650 mmHg 86%
14:00 +24°C° 1.2 mm 2 m/S 650 mmHg 86%
15:00 +24°C° 2 mm 1 m/S 649 mmHg 88%
16:00 +23°C° 2 mm 1 m/S 649 mmHg 89%
17:00 +23°C° 2 mm 1 m/S 648 mmHg 91%
18:00 +22°C° 0.8 mm 1 m/S 648 mmHg 91%
19:00 +21°C° 0.8 mm 1 m/S 649 mmHg 91%
20:00 +20°C° 0.8 mm 1 m/S 649 mmHg 91%
21:00 +19°C° 0 mm 1 m/S 649 mmHg 90%
22:00 +19°C° 0 mm 1 m/S 650 mmHg 90%
23:00 +19°C° 0 mm 1 m/S 650 mmHg 89%

Morgen, 5 März, Freitag

Zeit Temperatur Niederschläge Wind Luftdruck Luftfeuchtigkeit
00:00 +19°C° 0 mm 1 m/S 650 mmHg 89%
01:00 +18°C° 0 mm 1 m/S 650 mmHg 89%
02:00 +18°C° 0 mm 1 m/S 649 mmHg 89%
03:00 +18°C° 0 mm 1 m/S 649 mmHg 88%
04:00 +18°C° 0 mm 1 m/S 649 mmHg 88%
05:00 +18°C° 0 mm 1 m/S 649 mmHg 87%
06:00 +19°C° 0.2 mm 1 m/S 650 mmHg 86%
07:00 +20°C° 0.2 mm 1 m/S 651 mmHg 85%
08:00 +22°C° 0.2 mm 1 m/S 652 mmHg 84%
09:00 +23°C° 0.1 mm 1 m/S 652 mmHg 75%
10:00 +25°C° 0.1 mm 1 m/S 652 mmHg 67%
11:00 +27°C° 0.1 mm 2 m/S 653 mmHg 58%
12:00 +27°C° 0.1 mm 2 m/S 652 mmHg 57%
13:00 +28°C° 0.1 mm 2 m/S 651 mmHg 56%
14:00 +28°C° 0.1 mm 2 m/S 651 mmHg 55%
15:00 +27°C° 0.1 mm 2 m/S 650 mmHg 58%
16:00 +27°C° 0.1 mm 1 m/S 649 mmHg 60%
17:00 +27°C° 0.1 mm 1 m/S 648 mmHg 63%
18:00 +25°C° 0 mm 1 m/S 648 mmHg 67%
19:00 +23°C° 0 mm 1 m/S 648 mmHg 72%
20:00 +22°C° 0 mm 1 m/S 648 mmHg 77%
21:00 +22°C° 0 mm 1 m/S 649 mmHg 76%
22:00 +22°C° 0 mm 1 m/S 650 mmHg 75%
23:00 +22°C° 0 mm 1 m/S 650 mmHg 74%

übermorgen, 6 März, Samstag

Zeit Temperatur Niederschläge Wind Luftdruck Luftfeuchtigkeit
00:00 +21°C° 0 mm 1 m/S 650 mmHg 75%
01:00 +21°C° 0 mm 1 m/S 649 mmHg 76%
02:00 +20°C° 0 mm 1 m/S 649 mmHg 77%
03:00 +20°C° 0 mm 1 m/S 649 mmHg 77%
04:00 +19°C° 0 mm 1 m/S 649 mmHg 76%
05:00 +19°C° 0 mm 1 m/S 649 mmHg 76%
06:00 +20°C° 0 mm 1 m/S 649 mmHg 72%
07:00 +20°C° 0 mm 0 m/S 650 mmHg 69%
08:00 +21°C° 0 mm 0 m/S 651 mmHg 65%
09:00 +25°C° 0 mm 1 m/S 651 mmHg 62%
10:00 +26°C° 0 mm 1 m/S 651 mmHg 58%
11:00 +28°C° 0 mm 2 m/S 651 mmHg 54%
12:00 +29°C° 0 mm 2 m/S 651 mmHg 53%
13:00 +29°C° 0 mm 2 m/S 651 mmHg 52%
14:00 +29°C° 0 mm 2 m/S 650 mmHg 51%
15:00 +29°C° 0 mm 2 m/S 650 mmHg 53%
16:00 +29°C° 0 mm 2 m/S 649 mmHg 55%
17:00 +28°C° 0 mm 1 m/S 648 mmHg 58%
18:00 +26°C° 0 mm 1 m/S 648 mmHg 63%
19:00 +25°C° 0 mm 1 m/S 648 mmHg 68%
20:00 +23°C° 0 mm 1 m/S 648 mmHg 73%
21:00 +22°C° 0 mm 1 m/S 649 mmHg 74%
22:00 +22°C° 0 mm 1 m/S 649 mmHg 75%
23:00 +21°C° 0 mm 1 m/S 649 mmHg 76%

7 März, Sonntag

Zeit Temperatur Niederschläge Wind Luftdruck Luftfeuchtigkeit
00:00 +21°C° 0 mm 1 m/S 649 mmHg 76%
01:00 +20°C° 0 mm 1 m/S 649 mmHg 75%
02:00 +20°C° 0 mm 1 m/S 649 mmHg 75%
03:00 +20°C° 0 mm 1 m/S 649 mmHg 74%
04:00 +20°C° 0 mm 1 m/S 649 mmHg 74%
05:00 +19°C° 0 mm 1 m/S 649 mmHg 73%
06:00 +21°C° 0 mm 1 m/S 650 mmHg 69%
07:00 +20°C° 0 mm 0 m/S 651 mmHg 65%
08:00 +22°C° 0 mm 0 m/S 652 mmHg 61%
09:00 +26°C° 0 mm 1 m/S 652 mmHg 58%
10:00 +27°C° 0 mm 1 m/S 652 mmHg 54%
11:00 +29°C° 0 mm 2 m/S 652 mmHg 51%
12:00 +30°C° 0 mm 2 m/S 652 mmHg 50%
13:00 +30°C° 0 mm 2 m/S 651 mmHg 49%
14:00 +30°C° 0 mm 2 m/S 651 mmHg 47%
15:00 +30°C° 0 mm 2 m/S 650 mmHg 49%
16:00 +30°C° 0 mm 2 m/S 650 mmHg 51%
17:00 +29°C° 0 mm 1 m/S 649 mmHg 52%
18:00 +27°C° 0 mm 1 m/S 649 mmHg 58%
19:00 +25°C° 0 mm 1 m/S 649 mmHg 64%
20:00 +23°C° 0 mm 1 m/S 649 mmHg 70%
21:00 +22°C° 0 mm 1 m/S 650 mmHg 70%
22:00 +22°C° 0 mm 1 m/S 650 mmHg 70%
23:00 +22°C° 0 mm 1 m/S 651 mmHg 69%

8 März, Montag

Zeit Temperatur Niederschläge Wind Luftdruck Luftfeuchtigkeit
00:00 +22°C° 0 mm 1 m/S 650 mmHg 70%
01:00 +21°C° 0 mm 1 m/S 650 mmHg 70%
02:00 +21°C° 0 mm 1 m/S 650 mmHg 70%
03:00 +21°C° 0 mm 1 m/S 650 mmHg 70%
04:00 +21°C° 0 mm 1 m/S 650 mmHg 70%
05:00 +21°C° 0 mm 1 m/S 650 mmHg 70%
06:00 +22°C° 0 mm 1 m/S 650 mmHg 68%
07:00 +21°C° 0 mm 0 m/S 651 mmHg 66%
08:00 +23°C° 0 mm 0 m/S 652 mmHg 64%
09:00 +26°C° 0 mm 1 m/S 652 mmHg 58%
10:00 +28°C° 0 mm 1 m/S 653 mmHg 53%
11:00 +30°C° 0 mm 2 m/S 653 mmHg 48%
12:00 +30°C° 0.1 mm 2 m/S 653 mmHg 46%
13:00 +31°C° 0.1 mm 2 m/S 652 mmHg 44%
14:00 +31°C° 0.1 mm 2 m/S 652 mmHg 41%
15:00 +31°C° 0.1 mm 2 m/S 652 mmHg 43%
16:00 +30°C° 0.1 mm 2 m/S 651 mmHg 45%
17:00 +30°C° 0.1 mm 1 m/S 650 mmHg 47%
18:00 +28°C° 0 mm 1 m/S 650 mmHg 53%
19:00 +26°C° 0 mm 1 m/S 650 mmHg 58%
20:00 +23°C° 0 mm 2 m/S 650 mmHg 63%
21:00 +23°C° 0 mm 2 m/S 650 mmHg 62%
22:00 +23°C° 0 mm 1 m/S 651 mmHg 61%
23:00 +22°C° 0 mm 1 m/S 651 mmHg 59%

9 März, Dienstag

Zeit Temperatur Niederschläge Wind Luftdruck Luftfeuchtigkeit
00:00 +22°C° 0 mm 1 m/S 651 mmHg 58%
01:00 +22°C° 0 mm 1 m/S 650 mmHg 57%
02:00 +21°C° 0 mm 1 m/S 650 mmHg 55%
03:00 +21°C° 0 mm 1 m/S 650 mmHg 54%
04:00 +21°C° 0 mm 1 m/S 650 mmHg 53%
05:00 +21°C° 0 mm 1 m/S 649 mmHg 51%
06:00 +22°C° 0 mm 1 m/S 650 mmHg 50%
07:00 +24°C° 0 mm 1 m/S 651 mmHg 49%
08:00 +25°C° 0 mm 1 m/S 652 mmHg 47%
09:00 +27°C° 0 mm 1 m/S 652 mmHg 44%
10:00 +29°C° 0 mm 2 m/S 652 mmHg 41%
11:00 +31°C° 0 mm 2 m/S 652 mmHg 38%
12:00 +31°C° 0 mm 2 m/S 652 mmHg 37%
13:00 +32°C° 0 mm 2 m/S 651 mmHg 36%
14:00 +33°C° 0 mm 3 m/S 651 mmHg 36%
15:00 +32°C° 0 mm 2 m/S 650 mmHg 38%
16:00 +31°C° 0 mm 2 m/S 649 mmHg 41%
17:00 +31°C° 0 mm 2 m/S 649 mmHg 43%
18:00 +28°C° 0 mm 2 m/S 648 mmHg 49%
19:00 +26°C° 0 mm 2 m/S 647 mmHg 55%
20:00 +23°C° 0 mm 1 m/S 647 mmHg 61%
21:00 +23°C° 0 mm 1 m/S 647 mmHg 60%
22:00 +23°C° 0 mm 1 m/S 647 mmHg 60%
23:00 +22°C° 0 mm 1 m/S 647 mmHg 60%
Mehr zeigen

Wir brauchen deine Erlaubnis

Meteoprog und unser Service Anbieter werden persönliche Daten aufbewahren, so wie Cookies, Geräte Bezeichnung oder ähnliche Technologien von deinem Gerät und Prozess, so wie Persönliche Daten Inhalte und Werbungen, genauso wie social Media und den Verkehr zu analysieren.

  • Aufbewahrung und/oder Zugang zu deiner Geräte Informationen.

    Cookies, Geräte Bezeichnung oder andere Informationen, können aufbewahrt oder Zugang zu deinem Gerät erhalten, für den Grund, der oben angegeben wird.

  • Personalisierte Werbung und Inhalte, Messungen, Einblick in das Publikum und Produkt Entwicklung.

    Werbungen und Inhalte können personalisiert werden, basierend auf ein Profil. Mehr Daten können besser personalisierte Werbungen und Inhalte hinzufügen. Werbung und Inhalte können gezeigt und gemessen werden. Einblicke über das Publikum, welche die Werbung gesehen haben und den Inhalt, können abgeleitet werden. So wie Daten können genutzt werden, um es zu verbessern oder die Benutzer Erfahrung zu verbessern das System und die Software.

Wenn du “Ich stimme zu” klickst, erlaubst du uns, die Cookies zu benutzen die Geräte Bezeichnung, den Web oder ähnliche Technologien zu benutzen. Deine Settings, können in deinem Gerät bei deinem Browser geändert werden.

Für den bestimmten Zweck, berechtigten Interessen beruhen darauf, mehr als auf den Inhalt. Du kannst mehr darüber in unseren Privaten und Cookie Politik lesen.